QPF
0.03 0.12 0.19 0.11 0.08 0.07 0.07 0.07 0.07 0.09 0.10 0.11 0.11 0.10 0.10 0.08 0.06 0.05 0.05 0.07 0.07 0.06 0.06 0.08 0.09 0.11 0.11 0.09 0.07 0.07 0.08 0.07 0.06 0.06 0.08 0.11 0.14 0.16 0.16 0.14 0.09 0.09 0.10
0.03 0.08 0.16 0.11 0.08 0.07 0.07 0.07 0.08 0.10 0.14 0.15 0.11 0.13 0.12 0.10 0.07 0.06 0.06 0.05 0.05 0.04 0.04 0.06 0.07 0.08 0.09 0.09 0.09 0.11 0.09 0.08 0.08 0.08 0.08 0.08 0.12 0.14 0.14 0.12 0.08 0.09 0.11
0.02 0.04 0.06 0.08 0.07 0.07 0.07 0.06 0.08 0.11 0.20 0.20 0.16 0.17 0.13 0.08 0.06 0.06 0.07 0.06 0.06 0.05 0.05 0.06 0.09 0.08 0.06 0.06 0.06 0.08 0.09 0.08 0.08 0.08 0.06 0.04 0.06 0.11 0.12 0.11 0.09 0.08 0.10
0.02 0.02 0.02 0.04 0.05 0.06 0.08 0.09 0.10 0.13 0.18 0.21 0.17 0.14 0.10 0.07 0.05 0.06 0.07 0.07 0.06 0.06 0.06 0.06 0.06 0.08 0.06 0.04 0.04 0.04 0.04 0.04 0.04 0.03 0.02 0.03 0.05 0.09 0.09 0.09 0.09 0.09 0.09
0.02 0.01 0.02 0.03 0.05 0.06 0.06 0.08 0.12 0.14 0.13 0.16 0.16 0.10 0.10 0.08 0.07 0.06 0.06 0.06 0.05 0.06 0.05 0.04 0.05 0.07 0.06 0.04 0.03 0.03 0.03 0.02 0.02 0.01 0.01 0.03 0.04 0.05 0.06 0.07 0.09 0.09 0.10
0.02 0.01 0.02 0.04 0.05 0.06 0.05 0.07 0.14 0.15 0.12 0.13 0.15 0.13 0.12 0.10 0.08 0.08 0.06 0.05 0.05 0.06 0.05 0.05 0.05 0.08 0.08 0.07 0.05 0.04 0.04 0.03 0.01 0.00 0.01 0.01 0.02 0.04 0.05 0.05 0.07 0.06 0.08
0.01 0.02 0.04 0.05 0.06 0.06 0.05 0.11 0.17 0.12 0.12 0.12 0.12 0.13 0.12 0.10 0.09 0.08 0.07 0.06 0.04 0.05 0.06 0.05 0.04 0.05 0.05 0.06 0.06 0.06 0.06 0.04 0.01 0.01 0.00 0.01 0.02 0.03 0.04 0.05 0.06 0.07 0.07
0.01 0.02 0.05 0.06 0.05 0.05 0.07 0.08 0.10 0.11 0.11 0.09 0.08 0.09 0.11 0.10 0.08 0.08 0.08 0.06 0.04 0.05 0.04 0.04 0.04 0.03 0.03 0.03 0.05 0.05 0.04 0.02 0.01 0.01 0.01 0.02 0.04 0.05 0.06 0.06 0.05 0.07 0.08
0.01 0.01 0.03 0.03 0.03 0.05 0.07 0.05 0.06 0.08 0.09 0.06 0.06 0.06 0.08 0.09 0.09 0.09 0.08 0.06 0.04 0.03 0.03 0.03 0.02 0.02 0.03 0.03 0.04 0.04 0.02 0.01 0.01 0.01 0.00 0.01 0.04 0.06 0.06 0.07 0.07 0.08 0.09
0.01 0.01 0.02 0.01 0.02 0.03 0.03 0.04 0.05 0.06 0.07 0.06 0.05 0.05 0.05 0.05 0.06 0.06 0.07 0.06 0.04 0.03 0.02 0.02 0.02 0.02 0.03 0.04 0.05 0.04 0.03 0.01 0.00 0.01 0.01 0.02 0.05 0.08 0.09 0.07 0.06 0.07 0.09
0.01 0.01 0.01 0.01 0.01 0.02 0.02 0.03 0.04 0.04 0.05 0.05 0.04 0.05 0.03 0.02 0.02 0.02 0.04 0.06 0.05 0.04 0.03 0.02 0.03 0.03 0.04 0.05 0.04 0.03 0.02 0.01 0.01 0.01 0.02 0.05 0.07 0.09 0.09 0.08 0.07 0.08 0.09
0.01 0.01 0.01 0.01 0.01 0.01 0.01 0.02 0.02 0.02 0.02 0.03 0.03 0.02 0.01 0.01 0.02 0.02 0.03 0.04 0.03 0.02 0.02 0.02 0.02 0.03 0.03 0.02 0.02 0.02 0.01 0.00 0.00 0.01 0.02 0.06 0.08 0.08 0.07 0.06 0.07 0.08 0.08
0.01 0.01 0.01 0.02 0.02 0.01 0.01 0.01 0.01 0.02 0.02 0.02 0.01 0.02 0.01 0.02 0.02 0.02 0.02 0.02 0.01 0.01 0.01 0.01 0.01 0.01 0.01 0.02 0.02 0.01 0.01 0.01 0.01 0.01 0.05 0.09 0.09 0.08 0.06 0.06 0.07 0.07 0.06
0.03 0.01 0.02 0.03 0.04 0.04 0.02 0.01 0.02 0.02 0.02 0.02 0.01 0.01 0.01 0.02 0.02 0.02 0.02 0.01 0.01 0.01 0.01 0.01 0.01 0.01 0.00 0.01 0.01 0.01 0.01 0.01 0.01 0.05 0.22 0.15 0.08 0.08 0.06 0.07 0.07 0.07 0.07
0.04 0.02 0.02 0.03 0.04 0.05 0.04 0.02 0.02 0.02 0.02 0.02 0.01 0.01 0.01 0.01 0.01 0.01 0.02 0.02 0.02 0.02 0.02 0.02 0.01 0.01 0.01 0.01 0.01 0.01 0.01 0.01 0.03 0.10 0.20 0.14 0.09 0.09 0.08 0.07 0.06 0.06 0.06
0.04 0.04 0.04 0.05 0.05 0.04 0.04 0.04 0.02 0.01 0.01 0.02 0.01 0.01 0.01 0.01 0.01 0.01 0.02 0.02 0.02 0.02 0.03 0.03 0.03 0.02 0.02 0.01 0.01 0.02 0.02 0.01 0.03 0.05 0.08 0.10 0.09 0.09 0.10 0.09 0.06 0.05 0.05
0.06 0.05 0.05 0.05 0.04 0.02 0.02 0.02 0.02 0.02 0.01 0.02 0.02 0.02 0.02 0.01 0.01 0.01 0.02 0.02 0.02 0.03 0.03 0.03 0.03 0.02 0.02 0.01 0.01 0.01 0.01 0.01 0.02 0.04 0.06 0.08 0.09 0.09 0.11 0.11 0.08 0.06 0.05
0.05 0.05 0.05 0.03 0.02 0.01 0.01 0.01 0.02 0.02 0.02 0.02 0.01 0.01 0.02 0.02 0.01 0.01 0.01 0.02 0.02 0.03 0.03 0.03 0.04 0.03 0.02 0.01 0.01 0.00 0.01 0.01 0.01 0.03 0.05 0.05 0.05 0.06 0.09 0.11 0.09 0.06 0.05
0.03 0.04 0.06 0.05 0.03 0.02 0.03 0.03 0.03 0.03 0.02 0.02 0.02 0.02 0.02 0.02 0.02 0.01 0.01 0.01 0.02 0.02 0.03 0.03 0.03 0.03 0.02 0.01 0.01 0.01 0.01 0.02 0.02 0.02 0.02 0.02 0.02 0.02 0.03 0.05 0.07 0.05 0.04
0.03 0.06 0.08 0.08 0.06 0.05 0.04 0.04 0.04 0.03 0.02 0.02 0.02 0.03 0.03 0.02 0.02 0.02 0.01 0.01 0.01 0.02 0.02 0.03 0.03 0.03 0.01 0.01 0.02 0.02 0.01 0.01 0.01 0.01 0.01 0.01 0.00 0.01 0.01 0.02 0.03 0.03 0.02
0.03 0.05 0.08 0.09 0.08 0.05 0.03 0.03 0.03 0.02 0.02 0.01 0.02 0.03 0.03 0.02 0.02 0.02 0.03 0.02 0.01 0.01 0.01 0.02 0.03 0.03 0.02 0.02 0.02 0.02 0.03 0.02 0.01 0.01 0.01 0.01 0.01 0.01 0.01 0.01 0.01 0.02 0.01
0.04 0.04 0.06 0.08 0.09 0.05 0.03 0.03 0.03 0.03 0.03 0.03 0.02 0.03 0.02 0.01 0.01 0.02 0.02 0.03 0.03 0.02 0.02 0.02 0.02 0.02 0.01 0.01 0.02 0.03 0.05 0.04 0.02 0.02 0.02 0.02 0.02 0.03 0.03 0.02 0.02 0.01 0.01
0.06 0.07 0.05 0.08 0.09 0.06 0.05 0.04 0.03 0.03 0.02 0.02 0.01 0.01 0.01 0.01 0.01 0.03 0.03 0.02 0.03 0.03 0.02 0.02 0.02 0.03 0.02 0.01 0.01 0.01 0.03 0.05 0.05 0.04 0.03 0.03 0.02 0.02 0.03 0.03 0.03 0.02 0.02
0.05 0.09 0.06 0.05 0.07 0.07 0.04 0.03 0.02 0.01 0.01 0.01 0.01 0.01 0.01 0.01 0.02 0.03 0.03 0.02 0.02 0.02 0.01 0.01 0.02 0.02 0.02 0.02 0.01 0.01 0.01 0.01 0.02 0.03 0.02 0.02 0.02 0.02 0.02 0.02 0.04 0.04 0.02
0.04 0.07 0.05 0.04 0.04 0.05 0.03 0.02 0.02 0.01 0.01 0.01 0.01 0.01 0.01 0.01 0.01 0.03 0.04 0.03 0.02 0.02 0.01 0.01 0.01 0.01 0.01 0.01 0.01 0.01 0.01 0.01 0.01 0.01 0.01 0.01 0.01 0.00 0.01 0.01 0.01 0.03 0.02
0.03 0.03 0.04 0.03 0.04 0.04 0.03 0.02 0.02 0.01 0.02 0.01 0.02 0.02 0.02 0.02 0.01 0.02 0.04 0.05 0.03 0.02 0.02 0.02 0.01 0.01 0.01 0.01 0.01 0.01 0.01 0.01 0.02 0.01 0.01 0.01 0.00 0.00 0.01 0.00 0.01 0.01 0.02
MSLP
1010.89 1010.36 1010.01 1009.87 1009.89 1010.02 1010.19 1010.30 1010.34 1010.26 1010.11 1009.93 1009.76 1009.65 1009.60 1009.62 1009.66 1009.68 1009.67 1009.59 1009.45 1009.29 1009.14 1009.04 1009.00 1009.03 1009.12 1009.22 1009.31 1009.37 1009.39 1009.38 1009.37 1009.38 1009.44 1009.57 1009.74 1009.95 1010.17 1010.37 1010.54 1010.67 1010.79
1010.88 1010.40 1010.09 1009.96 1010.00 1010.13 1010.30 1010.43 1010.48 1010.44 1010.33 1010.20 1010.08 1010.01 1010.00 1010.04 1010.09 1010.11 1010.08 1009.98 1009.83 1009.66 1009.50 1009.39 1009.36 1009.39 1009.47 1009.57 1009.66 1009.72 1009.74 1009.74 1009.75 1009.78 1009.86 1009.99 1010.18 1010.38 1010.59 1010.78 1010.93 1011.05 1011.15
1010.78 1010.37 1010.11 1010.02 1010.07 1010.23 1010.41 1010.57 1010.65 1010.65 1010.59 1010.51 1010.44 1010.40 1010.41 1010.45 1010.48 1010.48 1010.42 1010.30 1010.13 1009.95 1009.80 1009.70 1009.68 1009.72 1009.81 1009.91 1010.01 1010.07 1010.11 1010.12 1010.15 1010.20 1010.30 1010.44 1010.62 1010.82 1011.02 1011.19 1011.33 1011.45 1011.57
1010.65 1010.32 1010.11 1010.07 1010.16 1010.34 1010.55 1010.74 1010.85 1010.89 1010.87 1010.82 1010.77 1010.75 1010.75 1010.77 1010.77 1010.74 1010.65 1010.51 1010.34 1010.17 1010.03 1009.96 1009.96 1010.03 1010.14 1010.26 1010.37 1010.46 1010.52 1010.56 1010.60 1010.67 1010.78 1010.92 1011.10 1011.28 1011.46 1011.62 1011.76 1011.88 1012.01
1010.57 1010.31 1010.17 1010.18 1010.31 1010.51 1010.74 1010.94 1011.07 1011.13 1011.13 1011.09 1011.05 1011.02 1011.00 1010.99 1010.96 1010.89 1010.78 1010.64 1010.48 1010.33 1010.24 1010.21 1010.25 1010.36 1010.50 1010.66 1010.80 1010.91 1010.99 1011.06 1011.13 1011.21 1011.32 1011.45 1011.60 1011.76 1011.91 1012.05 1012.19 1012.33 1012.48
1010.63 1010.45 1010.36 1010.41 1010.56 1010.77 1010.99 1011.18 1011.30 1011.35 1011.34 1011.30 1011.24 1011.19 1011.15 1011.11 1011.06 1010.98 1010.87 1010.74 1010.61 1010.51 1010.46 1010.49 1010.58 1010.74 1010.92 1011.11 1011.29 1011.43 1011.54 1011.64 1011.72 1011.81 1011.91 1012.02 1012.14 1012.26 1012.38 1012.50 1012.63 1012.78 1012.95
1010.90 1010.77 1010.72 1010.79 1010.93 1011.12 1011.31 1011.46 1011.54 1011.55 1011.51 1011.45 1011.37 1011.31 1011.26 1011.21 1011.15 1011.07 1010.97 1010.88 1010.79 1010.75 1010.76 1010.84 1010.99 1011.19 1011.41 1011.63 1011.83 1012.00 1012.14 1012.25 1012.34 1012.43 1012.51 1012.60 1012.68 1012.77 1012.86 1012.95 1013.08 1013.23 1013.43
1011.40 1011.30 1011.28 1011.33 1011.44 1011.58 1011.70 1011.77 1011.78 1011.74 1011.66 1011.57 1011.49 1011.42 1011.38 1011.33 1011.29 1011.24 1011.17 1011.12 1011.08 1011.09 1011.16 1011.29 1011.48 1011.71 1011.95 1012.19 1012.40 1012.58 1012.73 1012.85 1012.94 1013.02 1013.09 1013.15 1013.21 1013.26 1013.32 1013.41 1013.52 1013.69 1013.90
1012.12 1012.03 1012.00 1012.02 1012.07 1012.12 1012.15 1012.12 1012.05 1011.95 1011.83 1011.72 1011.64 1011.59 1011.56 1011.55 1011.54 1011.52 1011.50 1011.48 1011.48 1011.53 1011.64 1011.80 1012.01 1012.25 1012.50 1012.74 1012.95 1013.12 1013.27 1013.38 1013.47 1013.54 1013.60 1013.65 1013.69 1013.73 1013.78 1013.86 1013.97 1014.14 1014.36
1013.00 1012.90 1012.84 1012.81 1012.78 1012.73 1012.64 1012.51 1012.35 1012.18 1012.03 1011.92 1011.85 1011.83 1011.85 1011.88 1011.90 1011.92 1011.92 1011.93 1011.96 1012.03 1012.16 1012.33 1012.55 1012.78 1013.02 1013.24 1013.43 1013.59 1013.71 1013.81 1013.89 1013.96 1014.02 1014.07 1014.11 1014.16 1014.22 1014.30 1014.43 1014.61 1014.83
1013.96 1013.85 1013.75 1013.66 1013.54 1013.39 1013.19 1012.95 1012.70 1012.47 1012.29 1012.18 1012.14 1012.16 1012.21 1012.28 1012.33 1012.37 1012.39 1012.41 1012.45 1012.53 1012.66 1012.83 1013.04 1013.27 1013.49 1013.69 1013.85 1013.98 1014.07 1014.15 1014.22 1014.28 1014.35 1014.42 1014.48 1014.56 1014.65 1014.76 1014.91 1015.09 1015.31
1014.92 1014.80 1014.68 1014.53 1014.33 1014.07 1013.76 1013.42 1013.10 1012.82 1012.62 1012.51 1012.50 1012.54 1012.62 1012.71 1012.78 1012.82 1012.83 1012.85 1012.88 1012.96 1013.08 1013.26 1013.47 1013.69 1013.90 1014.07 1014.21 1014.31 1014.38 1014.43 1014.49 1014.55 1014.63 1014.72 1014.83 1014.94 1015.08 1015.23 1015.40 1015.60 1015.82
1015.85 1015.73 1015.59 1015.39 1015.11 1014.76 1014.36 1013.94 1013.55 1013.23 1013.00 1012.90 1012.89 1012.94 1013.03 1013.12 1013.17 1013.20 1013.19 1013.19 1013.21 1013.28 1013.41 1013.60 1013.82 1014.05 1014.27 1014.44 1014.57 1014.64 1014.69 1014.72 1014.76 1014.82 1014.91 1015.03 1015.17 1015.34 1015.52 1015.71 1015.91 1016.12 1016.34
1016.71 1016.60 1016.45 1016.22 1015.88 1015.47 1014.99 1014.50 1014.05 1013.68 1013.44 1013.32 1013.30 1013.34 1013.41 1013.46 1013.48 1013.47 1013.43 1013.40 1013.42 1013.50 1013.65 1013.87 1014.13 1014.40 1014.64 1014.83 1014.96 1015.03 1015.05 1015.07 1015.09 1015.14 1015.23 1015.37 1015.55 1015.76 1015.98 1016.21 1016.44 1016.66 1016.87
1017.49 1017.41 1017.26 1017.00 1016.63 1016.16 1015.63 1015.09 1014.59 1014.19 1013.92 1013.77 1013.71 1013.72 1013.74 1013.74 1013.70 1013.64 1013.56 1013.51 1013.53 1013.63 1013.82 1014.09 1014.41 1014.74 1015.04 1015.26 1015.42 1015.49 1015.51 1015.51 1015.52 1015.56 1015.65 1015.79 1015.98 1016.21 1016.46 1016.71 1016.95 1017.18 1017.38
1018.21 1018.14 1018.00 1017.73 1017.34 1016.84 1016.28 1015.71 1015.18 1014.75 1014.44 1014.25 1014.15 1014.09 1014.04 1013.97 1013.87 1013.75 1013.63 1013.57 1013.59 1013.72 1013.96 1014.30 1014.69 1015.09 1015.45 1015.74 1015.93 1016.03 1016.07 1016.06 1016.05 1016.08 1016.15 1016.29 1016.47 1016.70 1016.95 1017.21 1017.44 1017.66 1017.85
1018.86 1018.80 1018.66 1018.39 1017.99 1017.48 1016.91 1016.34 1015.80 1015.36 1015.02 1014.78 1014.61 1014.48 1014.35 1014.20 1014.03 1013.85 1013.69 1013.61 1013.64 1013.80 1014.09 1014.48 1014.94 1015.42 1015.85 1016.20 1016.45 1016.60 1016.65 1016.66 1016.65 1016.67 1016.72 1016.84 1017.00 1017.21 1017.44 1017.67 1017.89 1018.09 1018.26
1019.44 1019.37 1019.22 1018.95 1018.55 1018.06 1017.51 1016.95 1016.43 1015.99 1015.63 1015.35 1015.13 1014.92 1014.71 1014.48 1014.23 1013.99 1013.79 1013.69 1013.71 1013.88 1014.19 1014.63 1015.14 1015.67 1016.16 1016.58 1016.89 1017.09 1017.20 1017.24 1017.25 1017.27 1017.31 1017.40 1017.53 1017.70 1017.90 1018.10 1018.29 1018.46 1018.62
1019.91 1019.82 1019.65 1019.38 1019.00 1018.54 1018.03 1017.52 1017.04 1016.62 1016.26 1015.96 1015.68 1015.41 1015.12 1014.81 1014.49 1014.19 1013.95 1013.81 1013.80 1013.96 1014.26 1014.70 1015.21 1015.77 1016.30 1016.77 1017.15 1017.42 1017.60 1017.71 1017.76 1017.81 1017.86 1017.93 1018.04 1018.17 1018.32 1018.48 1018.64 1018.79 1018.93
1020.26 1020.13 1019.94 1019.66 1019.31 1018.90 1018.46 1018.02 1017.60 1017.23 1016.89 1016.57 1016.26 1015.93 1015.57 1015.20 1014.81 1014.44 1014.14 1013.95 1013.89 1013.99 1014.25 1014.64 1015.12 1015.66 1016.21 1016.71 1017.16 1017.51 1017.79 1017.98 1018.12 1018.22 1018.31 1018.39 1018.48 1018.58 1018.69 1018.81 1018.94 1019.08 1019.21
1020.47 1020.29 1020.06 1019.78 1019.46 1019.12 1018.76 1018.41 1018.08 1017.76 1017.46 1017.14 1016.81 1016.44 1016.03 1015.59 1015.14 1014.71 1014.35 1014.09 1013.95 1013.97 1014.13 1014.42 1014.83 1015.32 1015.85 1016.38 1016.88 1017.33 1017.72 1018.03 1018.28 1018.47 1018.62 1018.73 1018.82 1018.91 1019.00 1019.10 1019.21 1019.34 1019.47
1020.53 1020.29 1020.03 1019.76 1019.48 1019.20 1018.94 1018.68 1018.44 1018.19 1017.93 1017.62 1017.27 1016.87 1016.42 1015.94 1015.44 1014.96 1014.53 1014.19 1013.96 1013.86 1013.90 1014.07 1014.36 1014.76 1015.25 1015.78 1016.34 1016.88 1017.39 1017.84 1018.23 1018.53 1018.76 1018.93 1019.05 1019.15 1019.24 1019.33 1019.44 1019.57 1019.72
1020.48 1020.19 1019.90 1019.62 1019.38 1019.17 1018.98 1018.82 1018.66 1018.47 1018.25 1017.96 1017.60 1017.18 1016.71 1016.19 1015.66 1015.14 1014.66 1014.24 1013.91 1013.69 1013.58 1013.61 1013.77 1014.06 1014.47 1014.99 1015.58 1016.21 1016.84 1017.43 1017.96 1018.39 1018.72 1018.97 1019.14 1019.27 1019.37 1019.48 1019.61 1019.77 1019.94
1020.34 1020.01 1019.69 1019.42 1019.20 1019.04 1018.92 1018.83 1018.73 1018.59 1018.39 1018.11 1017.76 1017.33 1016.84 1016.31 1015.77 1015.23 1014.72 1014.24 1013.82 1013.48 1013.24 1013.11 1013.12 1013.29 1013.62 1014.10 1014.70 1015.40 1016.13 1016.85 1017.50 1018.06 1018.50 1018.84 1019.07 1019.24 1019.39 1019.53 1019.70 1019.89 1020.11
1020.18 1019.81 1019.47 1019.19 1018.99 1018.86 1018.78 1018.72 1018.65 1018.54 1018.35 1018.08 1017.72 1017.29 1016.81 1016.30 1015.77 1015.23 1014.71 1014.20 1013.72 1013.28 1012.91 1012.64 1012.51 1012.54 1012.77 1013.20 1013.79 1014.51 1015.32 1016.13 1016.90 1017.57 1018.11 1018.53 1018.83 1019.06 1019.26 1019.45 1019.67 1019.92 1020.20
1020.02 1019.63 1019.27 1018.97 1018.76 1018.63 1018.56 1018.51 1018.45 1018.34 1018.14 1017.86 1017.50 1017.08 1016.62 1016.14 1015.64 1015.15 1014.65 1014.13 1013.61 1013.10 1012.63 1012.23 1011.97 1011.87 1011.99 1012.34 1012.89 1013.61 1014.45 1015.32 1016.17 1016.92 1017.55 1018.05 1018.43 1018.72 1018.98 1019.24 1019.52 1019.84 1020.18
Thickness
5762 5766 5768 5770 5771 5772 5773 5774 5774 5774 5774 5774 5774 5774 5775 5775 5775 5775 5775 5775 5775 5775 5775 5775 5774 5774 5773 5773 5773 5773 5773 5773 5772 5772 5772 5771 5771 5771 5770 5770 5768 5768 5768
5763 5765 5767 5768 5769 5770 5771 5772 5771 5771 5771 5771 5773 5773 5772 5772 5772 5772 5772 5772 5772 5772 5772 5772 5771 5771 5770 5770 5770 5770 5770 5770 5769 5769 5768 5768 5768 5768 5768 5767 5766 5766 5766
5763 5764 5765 5766 5767 5768 5768 5769 5769 5768 5768 5768 5769 5769 5769 5769 5769 5769 5769 5769 5769 5769 5769 5768 5768 5767 5767 5767 5767 5767 5767 5766 5766 5765 5765 5765 5765 5765 5765 5764 5764 5763 5763
5761 5761 5762 5763 5764 5765 5765 5765 5765 5764 5764 5764 5764 5765 5765 5765 5765 5765 5765 5765 5765 5765 5765 5765 5764 5763 5763 5763 5763 5763 5762 5762 5762 5761 5761 5761 5761 5762 5762 5761 5761 5760 5760
5759 5759 5759 5760 5761 5761 5762 5762 5761 5761 5760 5760 5760 5761 5761 5761 5761 5761 5761 5761 5761 5761 5761 5761 5760 5759 5759 5759 5759 5758 5758 5758 5758 5757 5757 5758 5758 5758 5759 5758 5758 5757 5757
5756 5756 5756 5757 5757 5757 5758 5758 5757 5757 5757 5757 5756 5756 5757 5757 5756 5756 5757 5757 5757 5757 5757 5756 5756 5755 5755 5755 5754 5754 5754 5753 5753 5753 5753 5754 5754 5755 5755 5754 5754 5754 5753
5753 5753 5753 5753 5754 5754 5754 5754 5754 5753 5753 5753 5753 5752 5752 5752 5752 5752 5752 5752 5752 5752 5752 5752 5752 5751 5751 5750 5750 5749 5749 5749 5749 5749 5749 5749 5750 5751 5751 5750 5750 5750 5750
5750 5750 5749 5750 5750 5750 5750 5750 5750 5749 5749 5748 5748 5748 5747 5747 5747 5747 5747 5747 5747 5747 5747 5747 5747 5747 5746 5746 5745 5745 5745 5744 5744 5744 5745 5745 5746 5746 5747 5747 5746 5746 5746
5746 5746 5745 5745 5745 5745 5745 5745 5745 5745 5744 5744 5743 5743 5742 5742 5742 5742 5743 5743 5742 5742 5742 5742 5742 5742 5742 5742 5741 5741 5740 5740 5740 5740 5740 5741 5742 5743 5743 5743 5742 5742 5742
5742 5741 5741 5741 5740 5740 5741 5741 5740 5740 5740 5739 5738 5738 5737 5737 5737 5737 5737 5737 5738 5737 5737 5738 5738 5737 5737 5737 5737 5736 5736 5735 5735 5736 5736 5737 5738 5738 5738 5738 5738 5738 5738
5736 5737 5737 5736 5736 5736 5736 5736 5735 5735 5734 5734 5734 5733 5732 5732 5732 5732 5732 5732 5732 5732 5732 5733 5732 5732 5732 5732 5731 5731 5731 5730 5731 5731 5732 5733 5734 5734 5734 5734 5734 5734 5734
5731 5732 5733 5732 5732 5732 5731 5731 5731 5730 5729 5729 5728 5728 5727 5727 5727 5727 5727 5727 5727 5727 5727 5727 5727 5727 5727 5726 5726 5726 5725 5725 5726 5727 5728 5729 5730 5730 5730 5730 5730 5730 5729
5728 5728 5729 5728 5728 5727 5726 5726 5726 5725 5725 5724 5724 5724 5723 5723 5722 5722 5722 5721 5721 5721 5721 5721 5721 5721 5721 5721 5721 5721 5721 5721 5721 5721 5723 5724 5725 5725 5725 5725 5725 5724 5724
5725 5725 5725 5725 5724 5723 5722 5721 5721 5720 5720 5720 5719 5719 5719 5718 5718 5717 5717 5717 5716 5716 5716 5716 5715 5715 5716 5716 5716 5716 5715 5715 5716 5716 5718 5720 5720 5721 5720 5720 5719 5718 5719
5722 5722 5722 5722 5721 5719 5718 5717 5717 5716 5716 5716 5715 5715 5715 5714 5713 5713 5712 5712 5712 5711 5711 5711 5710 5710 5710 5710 5710 5710 5710 5710 5710 5710 5711 5713 5714 5715 5714 5714 5714 5713 5713
5720 5720 5720 5719 5718 5716 5715 5714 5713 5713 5712 5712 5711 5711 5711 5711 5710 5709 5708 5708 5707 5707 5707 5706 5706 5705 5705 5705 5704 5704 5704 5704 5704 5705 5705 5706 5707 5708 5708 5708 5708 5708 5707
5717 5717 5717 5717 5715 5713 5712 5711 5710 5709 5708 5708 5708 5707 5707 5707 5706 5705 5704 5703 5703 5703 5703 5702 5701 5700 5700 5699 5698 5699 5699 5698 5698 5699 5699 5700 5700 5700 5701 5701 5701 5701 5701
5715 5713 5714 5714 5712 5710 5709 5707 5706 5705 5704 5704 5704 5703 5703 5703 5703 5702 5701 5700 5699 5699 5698 5698 5696 5695 5694 5693 5692 5692 5693 5693 5693 5693 5693 5693 5693 5693 5694 5694 5694 5694 5695
5713 5711 5710 5709 5708 5706 5705 5704 5702 5701 5700 5700 5700 5699 5699 5699 5699 5699 5698 5697 5696 5695 5694 5694 5692 5691 5688 5687 5687 5686 5686 5687 5687 5687 5687 5686 5686 5687 5687 5687 5687 5687 5688
5711 5709 5707 5705 5704 5702 5701 5699 5697 5696 5695 5695 5695 5695 5695 5695 5695 5694 5694 5693 5692 5691 5690 5689 5687 5686 5684 5683 5683 5681 5680 5680 5680 5680 5680 5680 5680 5680 5680 5681 5681 5681 5682
5706 5705 5703 5701 5700 5698 5696 5693 5691 5689 5690 5690 5691 5691 5691 5691 5691 5691 5690 5689 5688 5687 5685 5684 5683 5681 5678 5678 5677 5674 5674 5674 5674 5674 5674 5674 5674 5674 5674 5675 5675 5676 5676
5702 5701 5699 5697 5696 5694 5693 5692 5690 5688 5686 5686 5687 5687 5687 5687 5687 5687 5686 5685 5684 5683 5681 5680 5679 5676 5674 5673 5671 5668 5665 5665 5667 5668 5668 5668 5668 5668 5668 5669 5669 5670 5671
5698 5697 5697 5694 5692 5691 5690 5688 5686 5683 5682 5681 5681 5682 5683 5683 5683 5683 5682 5681 5680 5679 5677 5676 5675 5673 5670 5668 5668 5665 5661 5658 5658 5660 5661 5661 5662 5662 5663 5663 5664 5665 5665
5697 5696 5694 5691 5689 5687 5685 5684 5681 5679 5676 5676 5677 5677 5678 5678 5678 5678 5678 5677 5676 5675 5674 5673 5672 5671 5669 5665 5663 5662 5661 5659 5655 5652 5653 5654 5656 5657 5657 5658 5659 5659 5660
5695 5693 5691 5688 5685 5683 5682 5680 5678 5676 5674 5673 5673 5673 5672 5673 5673 5673 5673 5672 5671 5671 5670 5669 5668 5667 5665 5663 5660 5658 5656 5654 5652 5649 5646 5647 5649 5650 5651 5653 5653 5654 5655
5692 5689 5687 5684 5681 5680 5678 5676 5674 5672 5671 5669 5668 5667 5666 5667 5668 5668 5668 5667 5667 5666 5665 5665 5664 5663 5661 5660 5658 5656 5654 5652 5648 5646 5643 5641 5642 5644 5646 5648 5648 5649 5650